星链-34091 (STARLINK-34091)

导读

STARLINK-34091是美国于2025年5月4日发射的星链卫星,星链是太空探索技术公司(SpaceX)打造的低轨卫星互联网星座,该卫星承担着为全球多地提供高速互联网接入服务的任务,尤其能为偏远地区、网络基础设施薄弱区域提供网络覆盖,进一步扩充了星链星座的在轨服务规模。

Basic Information
目录编号:
63808
目录名称:
STARLINK-34091
国际标识:
2025-092E
轨道中心:
EARTH
卫星名称:
星链-34091
卫星全名:
星链-34091 (STARLINK-34091)
卫星状态:
在轨 (已飞行488 天)
发射日期:
2025-05-04 UTC
国别 :
美国 (US)
星等 :
--
Orbit Information
数据来源 国际轨道数据
星历时间: 2026-09-04T14:17:45+0800
6小时前
查看轨道信息
半长轴: 6861.231km
偏心率: 0.0001329
轨道倾角: 43.002°
近地点辐角 261.577°
升交点赤经 244.182°
平近点角 98.493°
近地点: 482.182km
远地点: 484.006km
周期: 94.268分钟
每日圈数: 15.275652
Detailed Information
固有亮度:
5
最大亮度:
2.5
卫星平台:
Starlink V1.0
覆盖范围:
全球
运营商:
太空探索技术公司
运营商所在国:
美国
制造商(研发单位):
太空探索技术公司
制造商所在国:
美国
使用方式:
暂无
Satellite Introduction
Starlink 计划是 SpaceX 推出的全球卫星互联网项目,通过发射低轨道卫星,为全球尤其是偏远地区提供高速、低延迟的互联网服务。自 2019 年起,Starlink 已部署数千颗卫星,旨在缩小全球数字鸿沟,推动互联网普及。该项目还为军事、航空等行业提供通信支持,带来广泛经济效益。
2D Orbit Map
3D Orbit Map
Orbit Altitude Analysis Chart
Orbit Inclination Analysis Chart
Orbit Comprehensive Analysis Chart
View Comprehensive Chart
Conjunction Data List
Event ID Objects TCA Miss Dist (km) Collision Risk Probability Collision Risk Index (CRI) Action
CDM_260905-045605-538606-380821
2026-09-05T
04:56:50+0000
0.313 km
远距离
4.024227E-4 高风险 0.87
CDM_260903-184605-322406-380821
2026-09-03T
18:46:42+0000
1.129 km
极远距离
1.258832E-5 中风险 0.57
CDM_260905-065205-708506-380821
2026-09-05T
06:52:37+0000
1.201 km
极远距离
8.040591E-6 低风险 0.53
CDM_260905-082605-708506-380821
2026-09-05T
08:26:46+0000
1.396 km
极远距离
4.848223E-6 低风险 0.49
CDM_260903-163904-639606-380822
2026-09-03T
16:39:38+0000
1.734 km
极远距离
3.934969E-6 低风险 0.47
CDM_260903-171205-322406-380821
2026-09-03T
17:12:27+0000
1.782 km
极远距离
2.846491E-6 低风险 0.44
CDM_260905-032205-538606-380821
2026-09-05T
03:22:41+0000
2.331 km
极远距离
1.581911E-6 低风险 0.39
CDM_260905-063005-538606-380821
2026-09-05T
06:30:59+0000
2.994 km
极远距离
1.071543E-6 低风险 0.36
CDM_260903-202005-322406-380821
2026-09-03T
20:20:57+0000
2.915 km
极远距离
1.049413E-6 低风险 0.35